When you browse on this site, cookies collect data to enhance your experience and personalize the content and advertising you see.
Visit our Privacy Policy to learn more. By continuing to use the site, you agree to this use of cookies and data.
  • In Spain
  • List of Countries
  • For 7 days
  • Water Temperature
  • Satellite Maps
  • Weather Map
  • Weather Widgets
  • user-avatar
    Login

    Hourly Weather Sada

    Today, 25 June, Tuesday

    Time Temperature Precipitation Wind Pressure Humidity
    00:00 +21°C° 0 mm 2 mps 570 mmHg 29%
    01:00 +21°C° 0 mm 1 mps 570 mmHg 30%
    02:00 +21°C° 0 mm 1 mps 569 mmHg 31%
    03:00 +18°C° 0 mm 0 mps 569 mmHg 33%
    04:00 +18°C° 0 mm 0 mps 569 mmHg 34%
    05:00 +18°C° 0 mm 0 mps 569 mmHg 35%
    06:00 +18°C° 0 mm 0 mps 569 mmHg 36%
    07:00 +22°C° 0 mm 1 mps 570 mmHg 32%
    08:00 +23°C° 0 mm 1 mps 571 mmHg 29%
    09:00 +25°C° 0 mm 2 mps 572 mmHg 25%
    10:00 +26°C° 0 mm 2 mps 573 mmHg 26%
    11:00 +26°C° 0 mm 3 mps 573 mmHg 27%
    12:00 +27°C° 0 mm 3 mps 573 mmHg 29%
    13:00 +27°C° 0.3 mm 3 mps 573 mmHg 30%
    14:00 +27°C° 0.3 mm 3 mps 572 mmHg 32%
    15:00 +27°C° 0 mm 3 mps 572 mmHg 33%
    16:00 +26°C° 0.4 mm 3 mps 571 mmHg 38%
    17:00 +25°C° 0.4 mm 3 mps 571 mmHg 43%
    18:00 +24°C° 0.4 mm 3 mps 571 mmHg 47%
    19:00 +24°C° 0.5 mm 3 mps 571 mmHg 49%
    20:00 +23°C° 0.5 mm 2 mps 571 mmHg 51%
    21:00 +23°C° 0.5 mm 1 mps 571 mmHg 52%
    22:00 +23°C° 0 mm 1 mps 571 mmHg 52%
    23:00 +23°C° 0 mm 1 mps 571 mmHg 52%

    Tomorrow, 26 June, Wednesday

    Time Temperature Precipitation Wind Pressure Humidity
    00:00 +21°C° 0 mm 0 mps 571 mmHg 52%
    01:00 +20°C° 0 mm 0 mps 571 mmHg 52%
    02:00 +20°C° 0 mm 0 mps 570 mmHg 52%
    03:00 +21°C° 0 mm 1 mps 569 mmHg 52%
    04:00 +21°C° 0 mm 1 mps 570 mmHg 51%
    05:00 +21°C° 0 mm 1 mps 570 mmHg 51%
    06:00 +21°C° 0 mm 1 mps 570 mmHg 50%
    07:00 +23°C° 0 mm 2 mps 571 mmHg 43%
    08:00 +24°C° 0 mm 3 mps 572 mmHg 36%
    09:00 +26°C° 0 mm 5 mps 573 mmHg 29%
    10:00 +26°C° 0 mm 5 mps 573 mmHg 29%
    11:00 +27°C° 0 mm 4 mps 573 mmHg 29%
    12:00 +27°C° 0 mm 4 mps 573 mmHg 29%
    13:00 +27°C° 0 mm 4 mps 573 mmHg 28%
    14:00 +28°C° 0 mm 4 mps 572 mmHg 27%
    15:00 +28°C° 0 mm 4 mps 572 mmHg 26%
    16:00 +27°C° 0.1 mm 4 mps 572 mmHg 29%
    17:00 +27°C° 0.1 mm 3 mps 572 mmHg 31%
    18:00 +26°C° 0.1 mm 3 mps 571 mmHg 33%
    19:00 +25°C° 0 mm 2 mps 571 mmHg 37%
    20:00 +24°C° 0 mm 2 mps 571 mmHg 40%
    21:00 +23°C° 0 mm 1 mps 571 mmHg 43%
    22:00 +23°C° 0 mm 1 mps 571 mmHg 41%
    23:00 +23°C° 0 mm 1 mps 570 mmHg 38%

    Day after tomorrow, 27 June, Thursday

    Time Temperature Precipitation Wind Pressure Humidity
    00:00 +22°C° 0 mm 1 mps 570 mmHg 35%
    01:00 +22°C° 0 mm 1 mps 569 mmHg 35%
    02:00 +22°C° 0 mm 1 mps 569 mmHg 34%
    03:00 +21°C° 0 mm 1 mps 568 mmHg 34%
    04:00 +21°C° 0 mm 1 mps 569 mmHg 33%
    05:00 +21°C° 0 mm 1 mps 569 mmHg 32%
    06:00 +21°C° 0 mm 1 mps 569 mmHg 32%
    07:00 +23°C° 0 mm 2 mps 570 mmHg 27%
    08:00 +25°C° 0 mm 3 mps 571 mmHg 23%
    09:00 +27°C° 0 mm 3 mps 572 mmHg 18%
    10:00 +28°C° 0 mm 4 mps 572 mmHg 18%
    11:00 +29°C° 0 mm 5 mps 573 mmHg 17%
    12:00 +30°C° 0 mm 6 mps 573 mmHg 16%
    13:00 +30°C° 0 mm 6 mps 572 mmHg 17%
    14:00 +30°C° 0 mm 6 mps 572 mmHg 18%
    15:00 +30°C° 0 mm 6 mps 572 mmHg 18%
    16:00 +29°C° 0 mm 5 mps 571 mmHg 22%
    17:00 +28°C° 0 mm 5 mps 571 mmHg 25%
    18:00 +27°C° 0 mm 4 mps 570 mmHg 28%
    19:00 +27°C° 0 mm 3 mps 570 mmHg 29%
    20:00 +26°C° 0 mm 2 mps 570 mmHg 30%
    21:00 +25°C° 0 mm 2 mps 570 mmHg 31%
    22:00 +24°C° 0 mm 1 mps 569 mmHg 31%
    23:00 +24°C° 0 mm 1 mps 569 mmHg 30%

    28 June, Friday

    Time Temperature Precipitation Wind Pressure Humidity
    00:00 +23°C° 0 mm 1 mps 568 mmHg 30%
    01:00 +23°C° 0 mm 1 mps 568 mmHg 30%
    02:00 +20°C° 0 mm 0 mps 567 mmHg 29%
    03:00 +20°C° 0 mm 0 mps 567 mmHg 29%
    04:00 +22°C° 0 mm 1 mps 567 mmHg 30%
    05:00 +21°C° 0 mm 1 mps 567 mmHg 31%
    06:00 +21°C° 0 mm 1 mps 567 mmHg 32%
    07:00 +23°C° 0 mm 1 mps 568 mmHg 27%
    08:00 +25°C° 0 mm 2 mps 570 mmHg 22%
    09:00 +27°C° 0 mm 2 mps 571 mmHg 17%
    10:00 +28°C° 0 mm 3 mps 571 mmHg 18%
    11:00 +29°C° 0 mm 4 mps 571 mmHg 19%
    12:00 +29°C° 0 mm 4 mps 571 mmHg 20%
    13:00 +29°C° 0 mm 4 mps 571 mmHg 22%
    14:00 +29°C° 0 mm 4 mps 570 mmHg 25%
    15:00 +29°C° 0 mm 4 mps 570 mmHg 27%
    16:00 +28°C° 0.1 mm 4 mps 570 mmHg 29%
    17:00 +28°C° 0.1 mm 4 mps 569 mmHg 31%
    18:00 +27°C° 0.1 mm 4 mps 569 mmHg 33%
    19:00 +26°C° 0 mm 4 mps 569 mmHg 32%
    20:00 +26°C° 0 mm 4 mps 569 mmHg 30%
    21:00 +25°C° 0 mm 4 mps 569 mmHg 29%
    22:00 +25°C° 0 mm 3 mps 569 mmHg 28%
    23:00 +24°C° 0 mm 3 mps 569 mmHg 27%

    29 June, Saturday

    Time Temperature Precipitation Wind Pressure Humidity
    00:00 +24°C° 0 mm 3 mps 568 mmHg 25%
    01:00 +23°C° 0 mm 2 mps 568 mmHg 25%
    02:00 +23°C° 0 mm 2 mps 568 mmHg 25%
    03:00 +21°C° 0 mm 2 mps 567 mmHg 24%
    04:00 +22°C° 0 mm 1 mps 567 mmHg 30%
    05:00 +21°C° 0 mm 1 mps 567 mmHg 35%
    06:00 +18°C° 0 mm 0 mps 567 mmHg 40%
    07:00 +20°C° 0 mm 0 mps 569 mmHg 36%
    08:00 +24°C° 0 mm 1 mps 570 mmHg 33%
    09:00 +25°C° 0 mm 1 mps 571 mmHg 29%
    10:00 +26°C° 0.2 mm 2 mps 571 mmHg 31%
    11:00 +26°C° 0.2 mm 2 mps 571 mmHg 33%
    12:00 +27°C° 0.2 mm 3 mps 571 mmHg 34%
    13:00 +27°C° 0.6 mm 3 mps 571 mmHg 34%
    14:00 +27°C° 0.6 mm 4 mps 570 mmHg 34%
    15:00 +28°C° 0.6 mm 4 mps 570 mmHg 33%
    16:00 +27°C° 0.4 mm 4 mps 570 mmHg 39%
    17:00 +25°C° 0.4 mm 4 mps 569 mmHg 45%
    18:00 +24°C° 0.4 mm 3 mps 568 mmHg 51%
    19:00 +24°C° 0.1 mm 3 mps 569 mmHg 53%
    20:00 +23°C° 0.1 mm 2 mps 569 mmHg 56%
    21:00 +23°C° 0.1 mm 1 mps 569 mmHg 59%
    22:00 +23°C° 0 mm 1 mps 569 mmHg 57%
    23:00 +23°C° 0 mm 1 mps 569 mmHg 56%

    30 June, Sunday

    Time Temperature Precipitation Wind Pressure Humidity
    00:00 +23°C° 0 mm 1 mps 569 mmHg 55%
    01:00 +22°C° 0 mm 1 mps 568 mmHg 56%
    02:00 +22°C° 0 mm 1 mps 568 mmHg 56%
    03:00 +20°C° 0 mm 2 mps 568 mmHg 57%
    04:00 +20°C° 0 mm 2 mps 568 mmHg 54%
    05:00 +21°C° 0 mm 1 mps 568 mmHg 51%
    06:00 +21°C° 0 mm 1 mps 568 mmHg 48%
    07:00 +23°C° 0 mm 2 mps 570 mmHg 41%
    08:00 +24°C° 0 mm 3 mps 571 mmHg 35%
    09:00 +26°C° 0 mm 3 mps 572 mmHg 28%
    10:00 +27°C° 0 mm 4 mps 572 mmHg 29%
    11:00 +27°C° 0 mm 4 mps 572 mmHg 30%
    12:00 +28°C° 0 mm 5 mps 572 mmHg 31%
    13:00 +27°C° 0.2 mm 5 mps 571 mmHg 33%
    14:00 +27°C° 0.2 mm 6 mps 571 mmHg 34%
    15:00 +27°C° 0.2 mm 6 mps 570 mmHg 35%
    16:00 +26°C° 0 mm 5 mps 570 mmHg 39%
    17:00 +25°C° 0 mm 4 mps 569 mmHg 42%
    18:00 +23°C° 0 mm 4 mps 569 mmHg 46%
    19:00 +22°C° 0 mm 3 mps 569 mmHg 49%
    20:00 +21°C° 0 mm 2 mps 569 mmHg 52%
    21:00 +22°C° 0 mm 1 mps 569 mmHg 54%
    22:00 +22°C° 0 mm 1 mps 569 mmHg 53%
    23:00 +22°C° 0 mm 1 mps 569 mmHg 51%
    Show more